Bradford, PA

5:20 PM EDT on October 20, 2019 (GMT -0400)
Bradford Regional

Weather History for KBFD - August, 2019

Change the Weather History Date:

Thursday, August 22, 2019

  Actual Average Record
Temperature  
Mean Temperature 69 °F 63 °F  
Max Temperature 72 °F 75 °F 83 °F (1959)
Min Temperature 65 °F 52 °F 32 °F (1982)
Degree Days  
Heating Degree Days 0 1  
Month to date heating degree days 11 14  
Since 1 June heating degree days 145 223  
Since 1 July heating degree days 23 78  
Cooling Degree Days 4 1  
Month to date cooling degree days 67 43  
Year to date cooling degree days 257 167  
Since 1 June cooling degree days 250 157  
Growing Degree Days 14 (Base 50)    
Moisture  
Dew Point 63 °F    
Average Humidity 84    
Maximum Humidity 100    
Minimum Humidity 68    
Precipitation  
Precipitation 0.03 in 0.13 in 1.40 in (1987)
Month to date precipitation 4.23 2.96  
Year to date precipitation 32.20 28.80  
Sea Level Pressure  
Sea Level Pressure 29.97 in    
Wind  
Wind Speed 6 mph (WNW)    
Max Wind Speed 12 mph    
Max Gust Speed 15 mph    
Visibility 7 miles    
Events Fog , Rain    
T = Trace of Precipitation, MM = Missing Value Source: NWS Daily Summary

Daily Weather History Graph

Daily Weather History Graph

Search for Another Location

Airport or City:

Astronomy

Aug. 22, 2019 Rise Set
Actual Time 6:29 AM EDT 8:04 PM EDT
Civil Twilight 6:00 AM EDT 8:33 PM EDT
Nautical Twilight 5:24 AM EDT 9:09 PM EDT
Astronomical Twilight 4:47 AM EDT 9:46 PM EDT
Moon 11:47 PM EDT (8/22) 1:09 PM EDT (8/22)
Length of Visible Light 14h 33m
Length of Day
13h 34m
Waning Gibbous, 60% of the Moon is Illuminated
Aug 22
Waning Gibbous
Aug 23
Last Quarter
Aug 30
New
Sep 5
First Quarter
Sep 14
Full

Hourly Weather History & Observations

Time (EDT) Temp. Dew Point Humidity Pressure Visibility Wind Dir Wind Speed Gust Speed Precip Events Conditions
12:00 AM 66.0 °F 66.0 °F 100% 29.97 in 0.2 mi Variable 3.5 mph - N/A Fog Fog
12:11 AM 66.0 °F 66.0 °F 100% 29.98 in 0.8 mi WSW 4.6 mph - N/A   Mist
12:33 AM 66.0 °F 66.0 °F 100% 29.97 in 2.0 mi Variable 3.5 mph - N/A   Overcast
12:42 AM 66.0 °F 66.0 °F 100% 29.97 in 5.0 mi Calm Calm - N/A   Overcast
12:53 AM 66.0 °F 66.0 °F 100% 29.92 in 4.0 mi SW 3.5 mph - N/A   Overcast
1:30 AM 66.0 °F 66.0 °F 100% 29.97 in 1.8 mi SW 4.6 mph - N/A   Overcast
1:53 AM 66.0 °F 66.0 °F 100% 29.91 in 1.0 mi Variable 3.5 mph - N/A   Overcast
2:13 AM 66.0 °F 66.0 °F 100% 29.96 in 2.5 mi Variable 3.5 mph - N/A   Overcast
2:37 AM 66.0 °F 66.0 °F 100% 29.95 in 4.0 mi SW 4.6 mph - N/A   Overcast
2:53 AM 66.0 °F 66.0 °F 100% 29.89 in 6.0 mi WSW 4.6 mph - N/A   Overcast
3:04 AM 66.9 °F 66.0 °F 97% 29.94 in 6.0 mi SW 4.6 mph - N/A   Overcast
3:53 AM 66.9 °F 66.9 °F 100% 29.90 in 5.0 mi WSW 5.8 mph - N/A   Overcast
4:53 AM 68.0 °F 66.9 °F 96% 29.91 in 5.0 mi Variable 3.5 mph - N/A   Overcast
5:53 AM 68.0 °F 66.9 °F 96% 29.91 in 4.0 mi WSW 4.6 mph - N/A   Overcast
6:34 AM 68.0 °F 66.9 °F 96% 29.97 in 5.0 mi West 6.9 mph - N/A   Overcast
6:53 AM 68.0 °F 66.9 °F 96% 29.92 in 5.0 mi West 6.9 mph - N/A   Overcast
7:53 AM 69.1 °F 66.9 °F 93% 29.93 in 6.0 mi WNW 6.9 mph - N/A   Overcast
8:40 AM 69.1 °F 66.9 °F 93% 29.98 in 9.0 mi West 4.6 mph - N/A   Mostly Cloudy
8:53 AM 69.1 °F 66.9 °F 93% 29.95 in 4.0 mi SW 5.8 mph - 0.00 in Rain Light Rain
8:56 AM 69.1 °F 66.9 °F 93% 29.99 in 2.5 mi WSW 3.5 mph - 0.01 in Rain Light Rain
8:58 AM 68.0 °F 66.9 °F 96% 29.99 in 1.8 mi Calm Calm - 0.02 in Rain Light Rain
9:08 AM 68.0 °F 66.9 °F 96% 29.98 in 3.0 mi SW 4.6 mph - 0.03 in Rain Light Rain
9:33 AM 69.1 °F 66.9 °F 93% 29.98 in 10.0 mi West 4.6 mph - 0.03 in   Overcast
9:53 AM 69.1 °F 66.9 °F 93% 29.95 in 10.0 mi WNW 8.1 mph - 0.03 in   Overcast
10:09 AM 70.0 °F 66.9 °F 90% 29.99 in 10.0 mi NW 6.9 mph - N/A   Overcast
10:17 AM 71.1 °F 66.9 °F 87% 29.99 in 10.0 mi WNW 8.1 mph - N/A   Overcast
10:24 AM 71.1 °F 66.0 °F 84% 29.99 in 10.0 mi NNW 10.4 mph - N/A   Overcast
10:32 AM 69.1 °F 66.0 °F 90% 29.99 in 10.0 mi WNW 9.2 mph - N/A   Overcast
10:53 AM 72.0 °F 66.0 °F 81% 29.95 in 10.0 mi WNW 8.1 mph - N/A   Overcast
11:00 AM 71.1 °F 64.9 °F 81% 30.00 in 10.0 mi WNW 6.9 mph - N/A   Overcast
11:34 AM 69.1 °F 64.0 °F 84% 30.02 in 10.0 mi West 8.1 mph - N/A   Overcast
11:53 AM 69.1 °F 64.0 °F 84% 29.97 in 10.0 mi WNW 5.8 mph - N/A   Overcast
12:39 PM 68.0 °F 63.0 °F 84% 30.02 in 10.0 mi North 6.9 mph - N/A   Overcast
12:53 PM 66.9 °F 62.1 °F 84% 29.98 in 10.0 mi North 9.2 mph - N/A   Overcast
1:34 PM 66.9 °F 60.1 °F 79% 30.02 in 10.0 mi North 5.8 mph - N/A   Overcast
1:53 PM 66.9 °F 59.0 °F 76% 29.98 in 10.0 mi North 6.9 mph - N/A   Overcast
2:53 PM 66.9 °F 55.9 °F 68% 29.96 in 10.0 mi North 8.1 mph - N/A   Overcast
4:53 PM 69.1 °F 55.0 °F 61% 29.96 in 10.0 mi North 6.9 mph - 0.00 in   Overcast
5:02 PM 66.9 °F 54.0 °F 63% 30.00 in 10.0 mi North 10.4 mph - N/A   Overcast
5:53 PM 66.0 °F 54.0 °F 65% 29.98 in 10.0 mi NNW 8.1 mph - N/A   Overcast
6:53 PM 66.0 °F 53.1 °F 63% 29.98 in 10.0 mi North 5.8 mph - N/A   Clear
7:53 PM 62.1 °F 55.9 °F 80% 29.98 in 10.0 mi Calm Calm - N/A   Clear
8:53 PM 57.0 °F 55.0 °F 93% 30.01 in 10.0 mi Calm Calm - N/A   Clear
9:53 PM 55.0 °F 53.1 °F 93% 30.02 in 10.0 mi NW 3.5 mph - N/A   Clear
10:53 PM 55.0 °F 54.0 °F 96% 30.01 in 10.0 mi Calm Calm - N/A   Clear
11:53 PM 52.0 °F 51.1 °F 97% 30.03 in 2.5 mi Calm Calm - N/A   Clear